TimeCST,TemperatureF,Dew PointF,Humidity,Sea Level PressureIn,VisibilityMPH,Wind Direction,Wind SpeedMPH,Gust SpeedMPH,PrecipitationIn,Events,Conditions,WindDirDegrees,DateUTC
12:15 AM,41.0,37.4,87,30.16,10.0,North,3.5,-,N/A,,Clear,350,2012-11-04 05:15:00
12:35 AM,41.0,37.4,87,30.17,10.0,North,3.5,-,N/A,,Clear,350,2012-11-04 05:35:00
12:55 AM,41.0,37.4,87,30.17,10.0,North,5.8,-,N/A,,Clear,360,2012-11-04 05:55:00
1:15 AM,39.2,37.4,93,30.18,7.0,North,4.6,-,N/A,,Clear,360,2012-11-04 06:15:00
1:35 AM,39.2,37.4,93,30.17,7.0,North,6.9,-,N/A,,Clear,360,2012-11-04 06:35:00
1:55 AM,39.2,37.4,93,30.18,7.0,North,5.8,-,N/A,,Clear,350,2012-11-04 06:55:00
1:15 AM,39.2,37.4,93,30.18,5.0,North,4.6,-,N/A,,Clear,350,2012-11-04 07:15:00
1:35 AM,39.2,37.4,93,30.19,5.0,North,4.6,-,N/A,,Clear,360,2012-11-04 07:35:00
1:55 AM,37.4,37.4,100,30.20,5.0,NNW,3.5,-,N/A,,Clear,340,2012-11-04 07:55:00
2:15 AM,37.4,35.6,93,30.20,5.0,NW,3.5,-,N/A,,Clear,320,2012-11-04 08:15:00
2:35 AM,37.4,35.6,93,30.19,3.0,NNW,3.5,-,N/A,,Clear,330,2012-11-04 08:35:00
2:55 AM,37.4,35.6,93,30.19,3.0,NNW,4.6,-,N/A,,Clear,340,2012-11-04 08:55:00
3:15 AM,37.4,35.6,93,30.19,3.0,NNW,4.6,-,N/A,,Clear,340,2012-11-04 09:15:00
3:35 AM,37.4,35.6,93,30.19,3.0,NNW,4.6,-,N/A,,Clear,340,2012-11-04 09:35:00
3:55 AM,37.4,35.6,93,30.19,3.0,North,5.8,-,N/A,,Clear,350,2012-11-04 09:55:00
4:15 AM,37.4,35.6,93,30.20,3.0,North,6.9,-,N/A,,Clear,350,2012-11-04 10:15:00
4:35 AM,35.6,35.6,100,30.21,2.5,NNE,3.5,-,N/A,,Clear,20,2012-11-04 10:35:00
4:55 AM,35.6,33.8,93,30.21,2.0,Calm,Calm,-,N/A,,Clear,0,2012-11-04 10:55:00
5:15 AM,35.6,33.8,93,30.22,2.0,Calm,Calm,-,N/A,,Clear,0,2012-11-04 11:15:00
5:35 AM,35.6,33.8,93,30.22,2.5,Calm,Calm,-,N/A,,Clear,0,2012-11-04 11:35:00
6:48 AM,33.8,33.8,100,30.23,1.0,NNW,5.8,-,N/A,,Partly Cloudy,340,2012-11-04 12:48:00
7:59 AM,37.4,37.4,100,30.24,5.0,North,8.1,-,N/A,,Partly Cloudy,10,2012-11-04 13:59:00
8:55 AM,39.2,37.4,93,30.24,10.0,North,5.8,-,N/A,,Partly Cloudy,10,2012-11-04 14:55:00
9:59 AM,42.8,35.6,76,30.26,10.0,NNE,8.1,-,N/A,,Partly Cloudy,20,2012-11-04 15:59:00
11:50 AM,51.8,33.8,50,30.22,20.0,NNE,8.1,-,N/A,,Clear,20,2012-11-04 17:50:00
12:53 PM,51.8,32.0,47,30.19,20.0,NE,8.1,-,N/A,,Partly Cloudy,50,2012-11-04 18:53:00
1:58 PM,51.8,30.2,44,30.19,20.0,NW,6.9,-,N/A,,Clear,320,2012-11-04 19:58:00
2:58 PM,53.6,30.2,41,30.18,20.0,NW,6.9,-,N/A,,Scattered Clouds,320,2012-11-04 20:58:00
3:57 PM,53.6,32.0,44,30.19,20.0,North,8.1,-,N/A,,Scattered Clouds,350,2012-11-04 21:57:00
4:57 PM,46.4,33.8,62,30.18,20.0,NE,5.8,-,N/A,,Mostly Cloudy,40,2012-11-04 22:57:00
5:54 PM,44.6,33.8,66,30.18,20.0,Calm,Calm,-,N/A,,Scattered Clouds,0,2012-11-04 23:54:00
5:55 PM,42.8,33.8,70,30.18,10.0,Calm,Calm,-,N/A,,Scattered Clouds,0,2012-11-04 23:55:00
6:15 PM,41.0,33.8,76,30.18,10.0,Calm,Calm,-,N/A,,Scattered Clouds,0,2012-11-05 00:15:00
6:35 PM,42.8,33.8,70,30.17,10.0,Calm,Calm,-,N/A,,Mostly Cloudy,0,2012-11-05 00:35:00
6:55 PM,42.8,35.6,76,30.17,10.0,Calm,Calm,-,N/A,,Overcast,0,2012-11-05 00:55:00
7:35 PM,41.0,35.6,81,30.18,10.0,Calm,Calm,-,N/A,,Scattered Clouds,0,2012-11-05 01:35:00
7:55 PM,41.0,35.6,81,30.18,10.0,Calm,Calm,-,N/A,,Clear,0,2012-11-05 01:55:00
8:15 PM,41.0,35.6,81,30.18,10.0,Calm,Calm,-,N/A,,Clear,0,2012-11-05 02:15:00
8:35 PM,41.0,35.6,81,30.18,10.0,Calm,Calm,-,N/A,,Clear,0,2012-11-05 02:35:00
8:55 PM,39.2,35.6,87,30.18,10.0,Calm,Calm,-,N/A,,Scattered Clouds,0,2012-11-05 02:55:00
9:15 PM,39.2,35.6,87,30.18,10.0,Calm,Calm,-,N/A,,Mostly Cloudy,0,2012-11-05 03:15:00
9:35 PM,37.4,35.6,93,30.19,10.0,Calm,Calm,-,N/A,,Unknown,0,2012-11-05 03:35:00
9:55 PM,37.4,35.6,93,30.18,10.0,Calm,Calm,-,N/A,,Unknown,0,2012-11-05 03:55:00
10:15 PM,39.2,37.4,93,30.19,10.0,Calm,Calm,-,N/A,,Scattered Clouds,0,2012-11-05 04:15:00
10:35 PM,37.4,35.6,93,30.19,10.0,Calm,Calm,-,N/A,,Clear,0,2012-11-05 04:35:00
10:55 PM,37.4,35.6,93,30.19,10.0,Calm,Calm,-,N/A,,Clear,0,2012-11-05 04:55:00